Regional Weather Roundup
Issued by NWS Charleston, WV

Home | Current Version | Previous Version | Graphics & Text | Print | Product List | Glossary On
Versions: 1 2 3 4 5 6 7 8 9 10 11 12 13 14 15 16 17 18 19 20 21 22 23 24 25 26 27 28 29 30 31 32 33 34 35 36 37 38 39 40 41 42 43 44 45 46 47 48 49 50
000
ASUS41 KRLX 252310
RWRRLX
West Virginia Regional Weather Roundup
National Weather Service Charleston WV
600 PM EST TUE NOV 25 2014

Note: "fair" indicates few or no clouds below 12,000 feet with no
significant weather and/or obstructions to visibility.

WVZ003-260000-
Northern Panhandle of West Virginia

CITY           SKY/WX    TMP DP  RH WIND       PRES   REMARKS
WHEELING       CLEAR     38  26  62 NW10      30.11R
$$

WVZ009-260000-
Northwest West Virginia

CITY           SKY/WX    TMP DP  RH WIND       PRES   REMARKS
PARKERSBURG    CLEAR     44  27  51 NW9       30.13R
$$

WVZ006-260000-
Western West Virginia

CITY           SKY/WX    TMP DP  RH WIND       PRES   REMARKS
HUNTINGTON     CLEAR     46  28  49 NW7       30.08S
$$

WVZ015-260000-
West Central West Virginia

CITY           SKY/WX    TMP DP  RH WIND       PRES   REMARKS
CHARLESTON     MOCLDY    50  26  39 NW5       30.08R
$$

WVZ022-031-260000-
North Central West Virginia

CITY           SKY/WX    TMP DP  RH WIND       PRES   REMARKS
CLARKSBURG     CLEAR     44  27  51 CALM      30.09R
MORGANTOWN     CLEAR     47  24  40 W3        30.09R
$$

WVZ025-035-042-045-260000-
Southern West Virginia

CITY           SKY/WX    TMP DP  RH WIND       PRES   REMARKS
BECKLEY        CLEAR     45  22  40 N5        30.06R
LOGAN            N/A     48  25  40 N3        30.06R
BLUEFIELD      PTCLDY    47  20  34 CALM      30.07R
LEWISBURG      CLEAR     47  23  38 CALM      30.06S
$$

WVZ047-260000-
Northern Mountains of West Virginia

CITY           SKY/WX    TMP DP  RH WIND       PRES   REMARKS
ELKINS         CLEAR     36  25  64 CALM      30.08R
$$

WVZ052-260000-
Eastern Panhandle of West Virginia

CITY           SKY/WX    TMP DP  RH WIND       PRES   REMARKS
MARTINSBURG    CLEAR     44  26  49 CALM      30.07R
PETERSBURG     NOT AVBL
$$



USA.gov is the U.S. government's official web portal to all federal, state and local government web resources and services.